Location: Caltech
(34.1382°N, 118.1253°W)
Time: 17:16:21
(UTC-07:00)

SO-50 - Visible Passes

Search period start: 26 April 2015 00:00
Search period end: 06 May 2015 00:00
Orbit: 591 x 701 km, 64.6° (Epoch: 25 April)

Date Brightness Start Highest point End Pass type
(mag) Time Alt. Az. Time Alt. Az. Time Alt. Az.
26 Apr ? 20:09:49 10° NNW 20:14:22 36° NE 20:18:24 12° ESE visible
26 Apr ? 21:50:48 10° WNW 21:54:45 23° WSW 21:56:07 20° SW visible
27 Apr ? 20:35:30 10° NNW 20:40:29 90° ENE 20:44:18 17° SSE visible
28 Apr ? 21:01:52 10° NW 21:06:21 34° WSW 21:10:18 12° S visible
29 Apr ? 21:29:47 10° W 21:32:03 13° WSW 21:34:01 10° SW visible
30 Apr ? 20:13:06 10° NW 20:17:54 50° WSW 20:22:36 10° S visible
01 May ? 20:40:08 10° WNW 20:43:39 19° WSW 20:46:58 10° SSW visible
